Back to catalog

STARLINK-30039

AliveCommunicationsVLEO
NORAD 57468·PAYLOAD·🇺🇸 United States

Launched Jul 28, 2023 from Cape Canaveral Space Force Station

Loading…

Next Passes (next 24 hours)

TLE

FreshSource: CelesTrak SupGP

Epoch: Sep 14, 2026, 21:10 UTC

1 57468C 23107M   26257.88243056 -.00069381  00000+0 -25118-2 0  2575
2 57468  43.0041 347.8719 0001961 266.7347 286.3794 15.27627107    13

Track STARLINK-30039 in real time with AllMySat

Download on the App Store